www.pogodaiklimat.ru
ПОГОДА в Линкольне
Время
и дата
15:35 20.07
15:55 20.07
16:15 20.07
16:35 20.07
16:55 20.07
17:15 20.07
17:35 20.07
17:55 20.07
18:15 20.07
18:35 20.07
18:55 20.07
19:15 20.07
19:35 20.07
19:55 20.07
20:15 20.07
20:35 20.07
20:55 20.07
21:15 20.07
21:35 20.07
21:55 20.07
22:15 20.07
22:35 20.07
22:55 20.07
23:15 20.07
23:35 20.07
23:55 20.07
00:15 21.07
00:35 21.07
00:55 21.07
01:15 21.07
01:35 21.07
01:55 21.07
02:15 21.07
02:35 21.07
02:55 21.07
03:15 21.07
03:35 21.07
03:55 21.07
04:15 21.07
04:35 21.07
04:55 21.07
05:15 21.07
05:35 21.07
05:55 21.07
06:15 21.07
06:35 21.07
06:55 21.07
07:15 21.07
Ветер
(напр.,м/с)
Видим. Явления Облачность Т
(С)
Тd
(С)
f
(%)
Тe
(С)
Тes
(С)
Комфортность P
(гПа)
Po
(гПа)
Тmin
(С)
Tmax
(С)
R
(мм)
R24
(мм)
S
(см)
З 2 16 км ясно +39.0 +8.0 15 +37 +49 очень
жарко
1004.3
З 3 16 км ясно +40.0 +8.0 15 +38 +48 очень
жарко
1004.3
ЮЗ 3 16 км ясно +39.0 +7.0 14 +36 +43 очень
жарко
1003.9
штиль 0 16 км ясно +40.0 +7.0 14 +38 +48 очень
жарко
1003.9
ЮЗ 2 16 км ясно +40.0 +8.0 15 +38 +46 очень
жарко
1003.9
ЮЗ 3 16 км ясно +39.0 +11.0 19 +38 +41 очень
жарко
1003.6
ЮЗ 4 16 км ясно +39.0 +10.0 18 +38 +40 очень
жарко
1003.6
ЮЗ 5 16 км ясно +38.0 +11.0 20 +37 +39 очень
жарко
1003.6
ЮЗ 4 16 км ясно +37.0 +11.0 21 +36 +37 очень
жарко
1003.6
Ю 3 16 км ясно +36.0 +12.0 24 +36 +37 очень
жарко
1003.9
Ю 3 16 км ясно +35.0 +12.0 25 +35 +36 очень
жарко
1003.9
Ю 4 16 км ясно +33.0 +12.0 28 +33 +33 жарко 1004.3
Ю 4 16 км ясно +31.0 +13.0 33 +32 +32 жарко 1004.6
Ю 4 16 км ясно +31.0 +13.0 33 +32 +32 жарко 1004.6
Ю 3 16 км ясно +30.0 +13.0 35 +31 +31 жарко 1004.9
Ю 4 16 км ясно +30.0 +13.0 35 +31 +31 жарко 1004.9
Ю 4 16 км ясно +29.0 +13.0 37 +30 +30 жарко 1005.3
Ю 4 16 км ясно +28.0 +13.0 40 +30 +30 жарко 1004.9
Ю 3 16 км ясно +28.0 +13.0 40 +30 +30 жарко 1005.3
ЮВ 5 16 км ясно +28.0 +12.0 37 +29 +29 жарко 1005.6
ЮВ 6 16 км ясно +28.0 +12.0 37 +29 +29 жарко 1005.6
Ю 5 16 км ясно +27.0 +12.0 39 +28 +28 жарко 1005.6
Ю 4 16 км ясно +26.0 +12.0 42 +27 +27 жарко 1005.6
ЮВ 4 16 км ясно +26.0 +12.0 42 +27 +27 жарко 1005.6
ЮВ 5 16 км ясно +26.0 +12.0 42 +27 +27 жарко 1005.6
Ю 5 16 км ясно +25.0 +12.0 44 +27 +27 жарко 1005.6
Ю 5 16 км ясно +25.0 +12.0 44 +27 +27 жарко 1005.6
Ю 4 16 км ясно +25.0 +12.0 44 +27 +27 жарко 1005.6
Ю 4 16 км ясно +23.0 +12.0 50 +26 +26 жарко 1005.6
Ю 4 16 км ясно +23.0 +12.0 50 +26 +26 жарко 1005.6
ЮВ 5 16 км ясно +23.0 +11.0 47 +25 +25 комфорт 1005.6
Ю 5 16 км ясно +22.0 +11.0 50 +24 +24 комфорт 1005.6
Ю 5 16 км ясно +22.0 +11.0 50 +24 +24 комфорт 1005.6
Ю 4 16 км ясно +22.0 +11.0 50 +24 +24 комфорт 1005.6
Ю 4 16 км ясно +21.0 +11.0 53 +23 +23 комфорт 1005.6
Ю 5 16 км ясно +22.0 +11.0 50 +24 +24 комфорт 1005.6
Ю 4 16 км ясно +21.0 +11.0 53 +23 +23 комфорт 1005.6
Ю 4 16 км ясно +21.0 +10.0 49 +23 +23 комфорт 1005.6
Ю 4 16 км ясно +21.0 +10.0 49 +23 +23 комфорт 1006.0
Ю 4 16 км ясно +20.0 +10.0 53 +21 +21 комфорт 1006.0
Ю 4 16 км ясно +20.0 +10.0 53 +21 +21 комфорт 1006.3
ЮВ 4 16 км ясно +20.0 +10.0 53 +21 +21 комфорт 1006.3
Ю 4 16 км ясно +20.0 +11.0 56 +22 +22 комфорт 1006.3
ЮВ 4 16 км ясно +20.0 +11.0 56 +22 +22 комфорт 1006.6
ЮВ 5 16 км ясно +21.0 +11.0 53 +23 +24 комфорт 1007.0
ЮВ 4 16 км ясно +21.0 +11.0 53 +23 +24 комфорт 1007.0
ЮВ 6 16 км ясно +22.0 +11.0 50 +24 +24 комфорт 1007.0
ЮВ 5 16 км ясно +22.0 +11.0 50 +24 +26 комфорт 1007.3
Местоположение метеостанции Lincoln Regional Airport: широта 38.9092 долгота -121.3513 высота над уровнем моря 37 м.
В архиве по умолчанию представлена погода в Линкольне за последние 1-2 суток. Обновление информации о фактической погоде в базе происходит ежечасно! Архивные данные за месяц целиком и за предыдущие месяцы Вы можете получить, выбрав интересующий диапазон дат из раскрывающегося списка и нажав кнопку "Ввод!".
Внимание! Архив погоды МЕТАР в базе сайта по станциям, не включенным в климатический монитор, хранится не более 60 дней. Нет смысла пытаться выбрать более раннюю дату.
*Определитесь, кто Вы:
Внимание! Время в таблицах - местное (без учета летнего времени). Для получения всемирного времени необходимо вычесть поправку, которая равна -8 ч.
Смотрите также архив погоды в соседних городах и на ближайших метеорологических станциях:
Партнеры нашего сайта:      
Пояснения к столбцам:
  • Ветер - указаны скорость ветра в м/с - средняя за 10 мин, порывы в срок и между сроками (в фигурных скобках) и направление, откуда дует ветер: С - северный,
  • СВ - северо-восточный, В - восточный, ЮВ - юго-восточный, Ю - южный, ЮЗ - юго-западный, З - западный, СЗ - северо-западный.
  • Видимость - горизонтальная дальность видимости в метрах или километрах. При видимости от 1 до 10 км при отсутствии осадков обычно наблюдается дымка, при ухудшении видимости до 1 км и менее - туман. В сухую погоду видимость может ухудшаться дымом, пылью или мглою.
  • Явления - указаны атмосферные явления, наблюдавшиеся в срок или в последний час перед сроком; фигурными скобками обозначены явления, наблюдавшиеся между сроками (за 1-3 часа до срока); квадратными скобками обозначены град или гололедные отложения с указанием их диаметра в мм.
  • Облачность - указаны через наклонную черту общая и нижняя облачность в баллах и высота нижней границы облаков в метрах; квадратными скобками обозначены формы облаков: Ci - перистые, Cs - перисто-слоистые, Cc - перисто-кучевые, Ac - высококучевые, As - высокослоистые, Sc - слоисто-кучевые, Ns - слоисто-дождевые, Cu - кучевые, Cb - кучево-дождевые. Подробнее классификацию облаков см. в Атласе облаков (PDF).
  • T - Температура воздуха - температура, измеренная на высоте 2 м над землей.
  • Td - Температура точки росы - температура, при понижении до которой содержащийся в воздухе водяной пар достигнет насыщения.
  • f - Относительная влажность воздуха - влажноcть воздуха, измеренная на высоте 2 м над землей.
  • Te - Эффективная температура - температура, которую ощущает одетый по сезону человек в тени. Характеристика душности погоды. При расчете учитывается влияние влажности воздуха и скорости ветра на теплоощущения человека.
  • Tes - Эффективная температура на солнце - температура, которую ощущает человек, с поправкой на солнечный нагрев. Характеристика знойности погоды. Зависит от высоты солнца над горизонтом, облачности и скорости ветра. Ночью, в пасмурную погоду, а также при ветре 12 м/с и более поправка равна нулю.
  • P - Атмосферное давление - приведенное к уровню моря атмосферное давление.
  • Po - Атмосферное давление - измеренное на уровне метеостанции атмосферное давление.
  • Tmin - Минимальная температура - минимум температуры воздуха на высоте 2 м над землей.
  • Tmax - Максимальная температура - максимум температуры воздуха на высоте 2 м над землей.
  • R - Количество осадков - Количество выпавших осадков за период времени, мм. При наведении курсора мыши на число - период времени, за который выпало указанное количество осадков.
  • R24 - Количество осадков - Количество выпавших осадков за 24 часа, мм.
  • S - Снежный покров - Высота снежного покрова, см. При наведении курсора мыши на число - состояние снежного покрова и степень покрытия местности в баллах.